This demonstration page uses our WeatherBlox Daily Observations layout. Learn more.

Left ArrowRight Arrow

Hourly Observations for May 15, 2020

Temp ( °F °C ) Dew Point ( °F °C ) Humidity (%) Winds ( mph kmh ) Pressure ( in mb ) Visibility ( mi km ) Precip ( " mm )
12:52 am 00:52 Clear 67 19.4 65 18.3 93 93 SSE 12 19 29.81 1010 10 16 0.00 0.00
1:52 am 01:52 Clear 67 19.4 66 18.9 97 97 SSE 12 19 29.81 1009 10 16 0.00 0.00
2:52 am 02:52 Cloudy 67 19.4 66 18.9 97 97 SSE 9 15 29.84 1010 10 16 0.00 0.00
3:18 am 03:18 Mostly Cloudy with Nearby Thunderstorms 64 17.8 59 15 84 84 N 13 20 29.86 1011 10 16 0.00 0.00
3:33 am 03:33 Cloudy with Strong Thunderstorms 62 16.7 58 14.4 86 86 NNW 14 22 29.90 1013 4 6 0.03 0.76
3:52 am 03:52 Cloudy with Nearby Thunderstorms 61 16.1 59 15 93 93 NE 9 15 29.86 1011 7 11 0.12 3.05
4:03 am 04:03 Cloudy with Nearby Thunderstorms 61 16.1 59 15 93 93 ENE 9 15 29.87 1012 8 13 0.03 0.76
4:10 am 04:10 Cloudy with Nearby Thunderstorms 61 16.1 60 15.6 97 97 NW 9 15 29.91 1013 9 14 0.03 0.76
4:14 am 04:14 Cloudy with Strong Thunderstorms 60 15.6 59 15 96 96 NW 10 17 29.92 1013 2 3 0.03 0.76
4:16 am 04:16 Cloudy with Strong Thunderstorms 60 15.6 59 15 96 96 WNW 10 17 29.93 1014 1 2 0.05 1.27
4:21 am 04:21 Cloudy with Strong Thunderstorms 60 15.6 59 15 96 96 WNW 9 15 29.91 1013 1 1 0.27 6.86
4:30 am 04:30 Cloudy with Strong Thunderstorms 60 15.6 59 15 96 96 W 3 6 29.92 1013 2 2 0.55 13.97
4:36 am 04:36 Cloudy with Strong Thunderstorms 60 15.6 60 15.6 100 100 Calm 29.93 1014 2 3 0.62 15.75
4:44 am 04:44 Cloudy with Nearby Thunderstorms 60 15.6 60 15.6 100 100 NNW 3 6 29.92 1013 3 5 0.67 17.02
4:52 am 04:52 Cloudy with Nearby Thunderstorms 60 15.6 58 14.4 93 93 N 5 7 29.92 1013 8 13 0.69 17.53
5:14 am 05:14 Cloudy with Thunderstorms 60 15.6 59 15 96 96 NE 10 17 29.89 1012 8 13 0.01 0.25
5:29 am 05:29 Cloudy with Nearby Thunderstorms 60 15.6 59 15 96 96 NE 10 17 29.89 1012 8 13 0.03 0.76
5:42 am 05:42 Cloudy with Light Rain 60 15.6 60 15.6 100 100 E 6 9 29.91 1013 10 16 0.04 1.02
5:52 am 05:52 Cloudy with Light Rain 60 15.6 60 15.6 100 100 Calm 29.92 1013 9 14 0.05 1.27
6:52 am 06:52 Cloudy with Rain 60 15.6 59 15 96 96 SE 13 20 29.93 1014 6 10 0.18 4.57
7:52 am 07:52 Mostly Sunny 60 15.6 59 15 96 96 SSE 15 24 29.86 1011 10 16 0.07 1.78
8:52 am 08:52 Mostly Sunny 61 16.1 59 15 93 93 S 18 30 29.85 1011 10 16 0.00 0.00
9:52 am 09:52 Mostly Sunny 61 16.1 58 14.4 90 90 SSW 5 7 29.90 1013 10 16 0.00 0.00
10:52 am 10:52 Cloudy with Light Rain 61 16.1 59 15 93 93 NW 8 13 29.97 1015 10 16 0.00 0.00
11:52 am 11:52 Cloudy with Light Rain 61 16.1 59 15 93 93 SW 10 17 30.00 1016 10 16 0.03 0.76
12:52 pm 12:52 Mostly Cloudy with Light Rain 61 16.1 60 15.6 97 97 WNW 7 11 30.02 1017 10 16 0.00 0.00
1:44 pm 13:44 Partly Cloudy with Light Rain 62 16.7 59 15 90 90 SSE 23 37 29.85 1011 10 16 0.00 0.00
1:52 pm 13:52 Mostly Sunny 63 17.2 59 15 87 87 SW 20 31 29.86 1011 10 16 0.00 0.00
2:02 pm 14:02 Sunny 64 17.8 58 14.4 81 81 S 17 28 29.85 1011 10 16 0.00 0.00
2:52 pm 14:52 Sunny 64 17.8 57 13.9 78 78 S 18 30 29.84 1011 10 16 0.00 0.00
3:52 pm 15:52 Sunny 66 18.9 58 14.4 75 75 NNE 13 20 29.85 1011 10 16 0.00 0.00
4:52 pm 16:52 Sunny 66 18.9 59 15 78 78 NE 9 15 29.84 1011 10 16 0.00 0.00
5:52 pm 17:52 Sunny 66 18.9 60 15.6 81 81 ENE 12 19 29.85 1011 10 16 0.00 0.00
6:52 pm 18:52 Sunny 66 18.9 60 15.6 81 81 ENE 9 15 29.87 1012 10 16 0.00 0.00
7:52 pm 19:52 Sunny 64 17.8 60 15.6 87 87 ENE 7 11 29.89 1012 10 16 0.00 0.00
8:52 pm 20:52 Clear 63 17.2 60 15.6 90 90 E 9 15 29.88 1012 10 16 0.00 0.00
9:52 pm 21:52 Clear 64 17.8 60 15.6 87 87 ESE 12 19 29.90 1012 10 16 0.00 0.00
10:52 pm 22:52 Clear 63 17.2 60 15.6 90 90 SE 10 17 29.92 1013 10 16 0.00 0.00
11:52 pm 23:52 Clear 62 16.7 60 15.6 93 93 SE 8 13 29.93 1013 10 16 0.00 0.00

Powered by AerisWeather